Location: Most
(50.5133°N, 13.6207°E)
Time: 19:07:27
(UTC+02:00)

ISS - Pass Details

Date: 22 May 2019
Orbit: 407 x 410 km, 51.6° (Epoch: 23 May)

Event Time Altitude Azimuth Distance (km) Brightness Sun altitude
Rises 01:08:46 0° 284° (WNW) 2,338 0.2 -19.2°
Reaches altitude 10° 01:10:51 10° 284° (WNW) 1,476 -0.9 -19.2°
Maximum altitude 01:14:10 83° 198° (SSW) 418 -4.0 -19.2°
Enters shadow 01:14:14 81° 166° (SSE) 419 -4.0 -19.2°
